Time+03,TemperatureF,Dew PointF,Humidity,Sea Level PressureIn,VisibilityMPH,Wind Direction,Wind SpeedMPH,Gust SpeedMPH,PrecipitationIn,Events,Conditions,WindDirDegrees,DateUTC
12:55 AM,76.3,66.6,72,29.79,6.2,WNW,4.6,-,N/A,,Clear,290,2013-05-05 21:55:00
1:55 AM,75.7,66.0,72,29.79,6.2,NW,5.8,-,N/A,,Clear,310,2013-05-05 22:55:00
2:55 AM,75.4,66.6,74,29.78,6.2,NW,6.9,-,N/A,,Clear,320,2013-05-05 23:55:00
3:55 AM,75.2,66.9,75,29.79,6.2,NW,3.5,-,N/A,,Clear,320,2013-05-06 00:55:00
4:55 AM,74.7,67.8,79,29.80,6.2,NW,8.1,-,N/A,,Clear,310,2013-05-06 01:55:00
5:55 AM,75.0,68.2,79,29.81,6.2,WNW,4.6,-,N/A,,Partly Cloudy,290,2013-05-06 02:55:00
6:55 AM,78.1,67.5,70,29.83,6.2,WNW,8.1,-,N/A,,Mostly Cloudy,300,2013-05-06 03:55:00
7:55 AM,82.0,64.9,56,29.84,6.2,NW,11.5,-,N/A,,Overcast,320,2013-05-06 04:55:00
8:55 AM,86.2,60.3,41,29.84,6.2,North,12.7,-,N/A,,Overcast,360,2013-05-06 05:55:00
9:55 AM,89.2,56.7,33,29.84,6.2,North,10.4,-,N/A,,Overcast,350,2013-05-06 06:55:00
10:55 AM,92.1,52.2,26,29.84,6.2,NW,5.8,-,N/A,,Overcast,320,2013-05-06 07:55:00
11:55 AM,94.1,51.3,23,29.82,6.2,North,9.2,-,N/A,,Overcast,360,2013-05-06 08:55:00
12:55 PM,95.7,51.8,23,29.79,6.2,WNW,8.1,-,N/A,,Overcast,300,2013-05-06 09:55:00
1:55 PM,96.1,50.9,22,29.78,6.2,NW,8.1,-,N/A,,Overcast,310,2013-05-06 10:55:00
2:55 PM,96.4,50.4,21,29.77,6.2,NW,11.5,-,N/A,,Overcast,320,2013-05-06 11:55:00
3:55 PM,93.6,56.8,29,29.76,6.2,NE,10.4,-,N/A,,Mostly Cloudy,50,2013-05-06 12:55:00
4:55 PM,91.0,58.1,33,29.77,6.2,ENE,15.0,-,N/A,,Partly Cloudy,60,2013-05-06 13:55:00
5:55 PM,88.9,56.7,33,29.78,6.2,ENE,15.0,-,N/A,,Clear,60,2013-05-06 14:55:00
6:55 PM,87.1,55.2,34,29.79,6.2,NE,9.2,-,N/A,,Clear,50,2013-05-06 15:55:00
7:55 PM,85.6,55.4,35,29.80,6.2,NNE,9.2,-,N/A,,Clear,20,2013-05-06 16:55:00
8:55 PM,84.7,56.3,38,29.82,6.2,East,6.9,-,N/A,,Clear,80,2013-05-06 17:55:00
9:55 PM,82.0,61.7,50,29.83,6.2,ESE,4.6,-,N/A,,Clear,120,2013-05-06 18:55:00
10:55 PM,80.2,61.7,53,29.82,6.2,Calm,Calm,-,N/A,,Clear,0,2013-05-06 19:55:00
11:55 PM,79.9,62.1,54,29.79,6.2,Calm,Calm,-,N/A,,Clear,0,2013-05-06 20:55:00